Weather observations for the past three days for
Shageluk Airport
Imperial (Metric)
Date Time (akdt) Wind (mph) Vis. (mi.) Weather Sky Cond. Temperature (ºF) Relative Humidity Wind Chill (°F) Heat Index (°F) Pressure Precipitation (in)
Air Dwpt 6 hour altimeter (in) sea level (mb) 1 hr 3 hr 6 hr
Max. Min.
15 14:02 S 12 G 20 3.00 Light Rain Fog/Mist OVC008 46.9 46.9 100% 42 29.69 1005.5
15 13:02 S 12 G 20 10.00 Light Rain OVC008 46.9 46.9 100% 42 29.68 1005.0 0.02 0.07
15 12:02 S 13 G 17 3.00 Light Rain Fog/Mist OVC006 46 46 100% 41 29.67 1004.8
15 11:02 S 9 G 17 6.00 Light Rain Fog/Mist OVC006 46 46 100% 42 29.66 1004.5 0.03
15 10:02 S 8 G 18 10.00 Light Rain OVC008 46 46 46 45 100% 42 29.64 1003.8 0.01 0.21
15 09:02 S 12 2.50 Light Rain Fog/Mist OVC004 46 46 100% 41 29.62 1003.2
15 08:02 S 10 G 17 4.00 Light Rain Fog/Mist OVC006 45 45 100% 40 29.61 1002.8 0.01
15 07:02 S 12 G 18 10.00 Light Rain OVC008 46 45 96% 41 29.6 1002.1 0.01 0.21
15 06:02 S 9 6.00 Light Rain Fog/Mist OVC008 45 45 100% 41 29.59 1001.9 0.12
15 05:02 S 9 10.00 Rain BKN008 BKN013 OVC043 46 45 96% 42 29.58 1001.6 0.06
15 04:02 S 12 G 16 10.00 Overcast BKN008 OVC011 46 46 46 45 100% 41 29.57 1001.2 0.01 0.13
15 03:02 S 12 G 17 3.00 Light Rain Fog/Mist OVC006 46 45 96% 41 29.56 1001.0 0.01
15 02:02 S 9 9.00 Light Rain OVC010 45 45 100% 41 29.55 1000.6
15 01:02 SE 8 10.00 Light Rain BKN014 BKN019 OVC036 45 45 100% 41 29.54 1000.4 0.1 0.2
15 00:02 S 9 10.00 Light Rain FEW016 BKN026 OVC035 45 44.1 97% 41 29.53 1000.0 0.01
14 23:02 S 8 10.00 Overcast SCT017 BKN035 OVC043 46 44.1 93% 42 29.52 999.8
14 22:02 S 8 10.00 Light Rain FEW014 BKN043 OVC055 45 44.1 48.9 45 97% 41 29.52 999.6 0.09
14 21:42 S 8 10.00 Light Rain BKN014 BKN023 OVC045 46 45 96% 42 29.52 999.7 0.05
14 20:02 S 7 10.00 Light Rain BKN011 OVC017 46 45 96% 43 29.52 999.6 0.04
14 19:02 SW 9 10.00 Light Rain SCT013 BKN021 OVC055 48 44.1 86% 44 29.51 999.4
14 18:02 SW 12 G 17 10.00 Mostly Cloudy BKN019 48 43 83% 44 29.5 999.1
14 17:02 S 10 10.00 Overcast SCT028 OVC037 50 42.1 74% 46 29.49 998.7
14 16:02 S 13 G 23 10.00 Overcast BKN028 OVC033 50 41 51.1 44.1 71% 46 29.48 998.3
14 15:02 S 14 G 18 10.00 Overcast OVC028 50 42.1 74% 45 29.47 997.9
14 14:02 S 13 G 21 10.00 Overcast BKN024 OVC055 48.9 41 74% 44 29.46 997.6
14 13:02 S 12 G 21 10.00 Overcast OVC018 46 41 83% 41 29.46 997.4
14 12:02 S 12 G 25 10.00 Overcast OVC014 45 42.1 90% 40 29.44 996.8
14 11:02 S 12 G 22 10.00 Overcast OVC012 45 42.1 90% 40 29.42 996.3
14 10:02 S 13 G 20 9.00 Light Rain OVC009 44.1 43 46 42.1 96% 38 29.41 995.9 0.01
14 09:02 SE 12 G 18 8.00 Overcast OVC009 43 42.1 97% 37 29.4 995.5
14 07:02 Vrbl 7 10.00 Overcast BKN015 OVC030 44.1 42.1 93% 41 29.39 995.1 0.04
14 06:02 S 6 10.00 Overcast BKN012 OVC043 44.1 43 96% 41 29.38 994.9
14 05:02 S 10 10.00 Mostly Cloudy BKN012 46 45 96% 42 29.37 994.5
14 04:02 S 10 10.00 Overcast OVC009 46.9 46 52 46.9 97% 43 29.36 994.1 0.01 0.08
14 03:02 S 7 10.00 Light Rain SCT009 BKN015 OVC032 48.9 48 97% 46 29.34 993.6 0.03
14 01:02 NE 6 10.00 Light Rain OVC065 51.1 50 96% 29.33 993.3 0.09
14 00:02 NE 5 10.00 Overcast OVC070 51.1 51.1 100% 29.34 993.6
13 23:02 E 6 10.00 Overcast OVC065 52 51.1 97% 29.35 994.1
13 22:02 SE 3 10.00 Overcast BKN065 OVC080 52 51.1 53.1 52 97% 29.37 994.5 0.04 0.1
13 19:02 NE 7 10.00 Light Rain OVC055 53.1 51.1 93% 29.42 996.2 0.04 0.06
13 18:02 NE 6 10.00 Light Rain BKN026 OVC049 54 52 93% 29.44 996.9 0.01
13 17:02 NE 7 10.00 Light Rain OVC050 54 51.1 90% 29.46 997.5 0.01
13 16:02 NE 7 10.00 Overcast OVC049 55.9 48 55.9 50 75% 29.48 998.2
13 15:02 NE 5 10.00 Mostly Cloudy FEW029 BKN050 55.9 48 75% 29.5 998.8
13 14:02 Vrbl 3 10.00 Mostly Cloudy FEW019 BKN055 BKN110 55 46.9 74% 29.52 999.6
13 13:08 Calm 10.00 Overcast FEW015 BKN042 OVC055 53.1 46 77% 29.54 1000.2
13 11:02 Calm 10.00 Overcast BKN009 OVC014 50 46.9 89% 29.56 1000.9
13 10:02 SE 6 10.00 Overcast OVC009 48.9 46.9 48.9 46.9 93% 47 29.56 1001.0
13 09:02 S 5 10.00 Overcast OVC009 48.9 46 90% 48 29.56 1000.9
13 08:02 S 8 10.00 Overcast OVC009 48 46 93% 45 29.56 1001.0
13 07:02 S 7 10.00 Overcast OVC011 48 46 93% 45 29.56 1000.8 0.02
13 06:02 S 9 10.00 Overcast FEW016 OVC050 46.9 45 93% 43 29.54 1000.5
13 05:02 S 8 10.00 Overcast FEW013 OVC055 46.9 45 93% 44 29.54 1000.5
13 04:02 S 6 10.00 Mostly Cloudy FEW016 BKN055 48 45 55 46.9 89% 46 29.53 1000.1 0.05
13 03:02 S 9 G 17 10.00 Mostly Cloudy BKN018 48.9 46 90% 45 29.52 999.9
13 02:02 S 8 10.00 Overcast OVC022 50 46.9 89% 47 29.51 999.3 0.02
13 00:02 S 8 3.00 Light Rain Fog/Mist FEW016 BKN055 OVC070 51.1 51.1 100% 29.47 997.9 0.03
12 23:02 S 12 G 21 9.00 Light Rain SCT015 BKN026 OVC060 53.1 52 96% 29.44 997.0
12 22:02 SE 12 G 20 10.00 Overcast OVC038 54 51.1 55 54 90% 29.43 996.5 0.09
12 21:02 SE 15 G 26 10.00 Overcast SCT016 OVC042 54 51.1 90% 29.44 996.8
12 20:02 SE 14 G 21 10.00 Light Rain SCT018 BKN035 OVC055 54 52 93% 29.45 997.1 0.01
12 19:02 SE 10 G 24 10.00 Light Rain BKN020 OVC060 55 51.1 87% 29.46 997.5 0.28
12 17:02 SE 12 G 21 10.00 Light Rain FEW016 OVC070 54 52 93% 29.5 998.9 0.02
12 16:02 SE 12 G 16 10.00 Light Rain SCT016 BKN060 OVC075 53.1 52 53.1 52 96% 29.53 999.8 0.06 0.32
Date Time (akdt) Wind (mph) Vis. (mi.) Weather Sky Cond. Air Dwpt Max. Min. Relative Humidity Wind Chill (°F) Heat Index (°F) altimeter (in) sea level (mb) 1 hr 3 hr 6 hr
6 hour
Temperature (ºF) Pressure Precipitation (in)